Wind_Speed
2 3 5 8 10 13 14 16 17 18 19 21 23 24 25 25 25 25 24 24 24 24 24 23 24 24 24 24 25 25 25 25 24 24 23 23 23 23
2 2 4 7 9 12 13 15 16 17 19 21 22 23 25 25 25 25 25 25 25 25 25 25 24 24 25 24 24 25 26 25 25 25 25 25 26 26
4 3 4 6 9 10 12 13 15 17 19 19 21 22 23 24 25 25 26 26 26 26 26 25 25 25 25 26 26 25 26 27 27 27 27 27 27 27
5 4 5 7 8 9 11 12 14 15 17 18 20 21 23 24 24 24 25 25 25 26 26 26 26 26 27 27 27 27 27 27 28 28 28 28 28 29
6 6 6 7 9 10 11 12 13 14 16 17 18 19 21 23 23 24 24 24 25 25 26 26 27 27 27 27 28 28 28 28 28 28 29 29 29 30
8 7 7 8 9 10 11 12 13 14 15 16 17 18 18 21 22 23 23 24 25 25 26 26 27 28 28 28 28 28 28 28 28 29 29 30 30 31
10 10 9 9 9 10 11 12 14 14 15 17 17 18 18 19 21 23 24 25 26 26 26 26 27 27 28 27 27 28 29 29 29 29 30 30 31 31
12 12 11 11 11 11 12 13 14 15 16 17 18 19 20 19 21 22 24 24 25 26 27 27 28 28 28 28 28 28 29 29 30 30 30 31 31 32
15 14 14 13 14 14 13 14 15 16 17 17 18 19 20 21 21 22 23 24 24 26 26 27 27 27 27 28 28 29 29 30 30 31 32 32 32 33
18 17 17 16 16 16 16 16 16 16 17 18 18 19 20 21 21 21 22 23 23 24 25 26 26 27 27 27 27 28 30 30 31 31 31 32 32 33
22 21 20 19 19 19 19 18 18 18 18 18 18 19 20 20 21 22 22 22 22 23 24 24 25 25 25 26 27 27 27 28 29 30 30 31 32 33
25 24 23 22 21 21 21 21 21 20 20 20 20 20 20 21 21 22 22 22 22 22 23 23 23 24 24 24 25 25 26 26 27 28 28 30 31 32
29 28 27 26 25 24 23 23 23 22 22 21 21 20 20 21 21 21 21 21 21 22 22 23 23 23 24 24 24 25 25 26 27 28 29 30 31 32
32 31 30 30 29 27 26 25 25 24 24 23 23 22 22 22 21 21 21 21 22 22 22 23 23 23 23 23 24 24 25 26 27 28 29 31 32 33
36 35 34 33 32 31 29 28 27 26 26 25 25 24 23 23 23 22 22 22 22 23 23 24 23 24 24 24 25 25 26 27 28 29 30 31 32 33
40 39 38 37 36 35 33 31 30 29 28 28 27 27 26 25 24 24 24 24 24 24 24 24 25 25 25 26 27 27 28 29 30 31 31 32 34 35
44 43 42 40 40 38 37 35 34 32 31 31 30 29 28 27 27 26 25 25 26 26 26 26 26 27 28 28 29 29 30 31 32 33 34 35 36 37
48 47 45 43 42 41 40 38 37 36 34 33 32 31 30 29 29 28 27 27 27 27 28 28 28 28 29 29 30 31 31 32 33 34 35 36 37 39
51 49 47 46 44 43 42 41 39 38 37 36 35 34 33 32 31 30 30 29 29 29 29 29 29 29 30 30 31 32 32 33 34 35 36 37 38 40
52 50 49 48 47 46 44 43 42 41 39 38 37 36 35 34 33 32 32 31 31 30 30 30 30 30 31 31 32 33 34 35 36 36 37 38 40 41
53 52 50 49 48 48 46 45 44 43 41 40 39 38 37 36 35 34 33 33 32 32 31 31 31 31 32 32 33 34 35 36 37 37 39 40 41 42
54 53 52 51 49 49 48 46 45 44 43 42 40 39 38 37 36 35 34 33 33 33 32 32 32 32 33 33 34 34 35 36 37 38 40 41 42 43
55 54 54 53 51 50 49 48 46 45 44 43 42 41 40 38 37 36 35 34 34 33 33 33 33 33 33 34 34 35 36 37 38 39 40 41 42 43
Wind_Direction
299 238 222 213 213 209 209 208 209 210 212 211 212 213 213 214 215 215 218 220 222 224 225 225 225 225 227 230 232 234 236 237 240 243 245 247 249 251
318 262 230 220 215 213 213 210 211 213 213 212 213 215 215 216 217 219 221 223 225 227 228 228 227 229 230 232 236 237 240 241 242 245 247 250 252 253
316 270 239 227 220 217 215 214 213 215 216 216 217 217 217 218 221 223 224 226 228 228 229 229 228 230 233 235 238 239 242 243 245 247 249 251 253 254
312 277 254 240 229 223 218 216 216 219 219 219 218 219 220 222 224 225 227 226 227 228 229 230 232 235 237 238 240 242 245 245 247 249 251 253 256 258
310 287 264 250 239 234 224 221 223 224 222 221 220 221 222 224 225 228 229 229 231 232 232 234 235 237 239 240 242 245 247 247 249 251 253 255 257 258
299 293 276 259 249 240 230 227 226 227 226 224 224 223 223 226 228 229 231 232 233 235 236 238 238 240 242 242 243 247 248 250 251 253 255 257 259 260
288 287 279 264 252 244 236 234 232 230 229 228 228 228 229 231 231 232 234 236 237 237 238 240 241 241 243 245 247 248 250 252 253 255 256 258 260 262
281 278 274 265 254 248 244 240 237 236 235 233 233 233 234 233 234 235 237 238 239 239 240 241 243 244 246 248 249 250 251 253 255 257 258 261 262 264
274 272 269 265 256 251 248 244 241 240 240 240 239 237 236 236 237 238 240 241 242 242 242 242 244 245 246 248 250 252 253 255 257 259 259 262 264 266
268 268 267 262 258 254 250 247 246 244 242 242 242 239 238 239 240 241 241 242 243 243 243 244 245 247 248 249 251 253 256 258 259 260 261 263 265 267
265 264 263 260 257 254 252 250 248 246 244 244 243 242 242 242 243 243 243 243 243 245 245 246 247 248 250 252 254 256 257 260 263 264 265 265 267 268
263 261 260 258 257 254 252 250 249 247 246 246 246 245 244 243 244 244 244 244 245 246 247 248 250 252 254 256 257 258 260 262 265 267 268 268 269 271
260 259 257 256 255 254 253 251 249 247 246 246 247 247 246 244 244 245 245 246 247 248 250 251 253 254 255 257 258 260 262 265 268 270 272 274 275 275
258 257 255 254 254 253 252 251 250 248 247 246 246 247 247 247 246 246 247 248 249 251 252 254 255 255 257 259 260 262 265 267 270 273 276 277 278 279
257 255 254 253 252 251 251 250 249 248 247 246 246 247 247 248 247 247 248 249 250 252 254 256 257 258 259 262 264 266 269 271 273 276 278 279 280 281
255 254 253 252 251 250 249 249 249 248 248 247 247 247 248 249 250 250 250 251 253 254 255 257 259 261 263 265 268 270 272 274 276 278 280 281 282 283
253 252 252 252 251 251 249 248 248 248 248 248 248 248 249 250 251 252 253 253 254 256 257 259 262 264 266 268 270 272 274 276 278 280 282 284 285 286
252 251 250 250 250 250 250 249 248 247 247 247 248 248 249 250 251 252 254 255 257 258 260 262 264 266 267 269 271 273 275 277 279 281 283 285 286 287
251 249 248 248 248 248 248 248 248 247 247 247 248 248 249 250 251 253 254 256 258 260 262 263 265 267 269 271 272 274 276 278 280 282 284 285 287 288
250 249 247 246 247 246 246 247 247 246 246 246 247 248 249 250 251 252 254 256 258 261 263 265 266 269 271 273 274 276 278 280 282 283 284 286 287 289
248 247 246 245 245 245 244 244 245 246 246 246 246 248 249 250 251 253 254 256 259 261 264 266 268 270 272 275 277 278 280 281 283 284 286 287 288 290
246 245 244 243 242 243 242 243 244 245 245 245 246 247 248 250 252 253 255 257 260 262 265 267 269 271 273 276 278 280 281 283 284 285 287 289 290 291
245 244 242 241 240 241 241 241 241 243 244 245 245 246 248 250 251 253 255 257 260 262 265 267 269 272 274 277 279 281 283 284 286 288 289 291 292 292
Height
5786 5786 5786 5787 5787 5789 5790 5792 5795 5798 5801 5803 5806 5809 5813 5816 5819 5823 5826 5829 5832 5835 5837 5840 5842 5845 5848 5851 5853 5855 5857 5860 5862 5864 5865 5867 5868 5870
5787 5786 5786 5786 5787 5788 5789 5791 5793 5795 5798 5800 5803 5806 5809 5813 5816 5819 5822 5825 5828 5831 5833 5836 5838 5841 5844 5846 5848 5850 5853 5855 5857 5859 5860 5862 5863 5864
5787 5786 5786 5786 5786 5787 5788 5789 5791 5793 5795 5798 5800 5803 5806 5809 5812 5815 5818 5820 5823 5826 5828 5831 5834 5836 5838 5841 5843 5845 5847 5850 5851 5853 5854 5856 5857 5858
5786 5786 5785 5785 5786 5786 5787 5788 5790 5791 5793 5795 5797 5800 5803 5805 5808 5811 5813 5816 5818 5821 5823 5826 5828 5831 5833 5835 5837 5839 5841 5843 5845 5847 5848 5850 5851 5852
5786 5785 5784 5784 5784 5785 5785 5786 5788 5789 5790 5792 5794 5796 5799 5801 5804 5806 5808 5811 5813 5815 5818 5820 5823 5825 5827 5829 5831 5833 5835 5837 5839 5840 5841 5843 5844 5844
5785 5784 5783 5782 5782 5783 5783 5784 5785 5786 5788 5789 5791 5793 5795 5797 5799 5801 5804 5806 5808 5810 5812 5814 5816 5819 5821 5822 5825 5827 5829 5830 5831 5833 5834 5835 5836 5837
5783 5782 5781 5780 5780 5781 5781 5782 5782 5784 5785 5786 5788 5789 5791 5793 5794 5796 5798 5800 5802 5804 5806 5808 5811 5813 5814 5816 5818 5820 5821 5823 5824 5826 5827 5827 5828 5829
5781 5780 5779 5779 5778 5778 5779 5779 5779 5780 5781 5783 5784 5785 5786 5788 5789 5791 5793 5795 5797 5799 5800 5802 5804 5806 5808 5810 5811 5813 5814 5815 5817 5818 5819 5819 5820 5820
5777 5777 5776 5776 5775 5775 5775 5776 5776 5777 5778 5778 5779 5780 5781 5783 5784 5785 5787 5789 5790 5792 5794 5796 5797 5799 5801 5802 5804 5805 5806 5808 5809 5810 5810 5811 5811 5812
5773 5772 5772 5772 5772 5772 5772 5772 5772 5773 5773 5774 5775 5775 5776 5777 5778 5780 5781 5782 5784 5785 5787 5789 5791 5792 5794 5795 5796 5797 5798 5799 5800 5801 5802 5802 5803 5803
5767 5767 5767 5767 5767 5767 5767 5767 5767 5768 5768 5769 5770 5770 5771 5772 5773 5774 5775 5777 5778 5779 5781 5782 5784 5785 5786 5788 5789 5790 5791 5792 5792 5793 5793 5794 5794 5794
5761 5761 5761 5761 5761 5761 5761 5762 5762 5763 5763 5764 5764 5765 5766 5766 5767 5768 5769 5771 5772 5774 5775 5776 5777 5778 5780 5781 5781 5782 5783 5784 5784 5785 5785 5785 5785 5784
5752 5753 5754 5754 5754 5754 5755 5756 5756 5757 5757 5758 5758 5759 5760 5761 5761 5762 5763 5765 5766 5767 5768 5769 5770 5771 5773 5774 5774 5775 5776 5776 5776 5776 5776 5776 5776 5775
5743 5744 5745 5746 5746 5747 5747 5748 5749 5750 5750 5751 5752 5753 5754 5755 5756 5756 5757 5758 5760 5761 5762 5763 5764 5765 5766 5766 5767 5767 5768 5768 5768 5768 5768 5767 5766 5765
5732 5733 5735 5736 5737 5738 5739 5740 5741 5742 5743 5744 5745 5746 5747 5749 5749 5750 5751 5752 5753 5754 5755 5756 5757 5758 5758 5759 5759 5760 5760 5760 5760 5759 5759 5758 5757 5756
5719 5721 5723 5724 5726 5728 5729 5731 5732 5733 5735 5736 5738 5739 5740 5741 5742 5743 5744 5745 5746 5747 5748 5749 5749 5750 5751 5751 5751 5751 5751 5751 5751 5750 5749 5748 5747 5745
5705 5707 5710 5712 5714 5716 5719 5720 5722 5724 5726 5727 5729 5730 5732 5733 5735 5736 5737 5738 5739 5740 5741 5741 5742 5742 5742 5743 5743 5743 5742 5742 5741 5740 5739 5737 5736 5734
5689 5692 5696 5699 5701 5704 5707 5709 5711 5713 5715 5717 5719 5721 5723 5724 5726 5727 5729 5730 5731 5732 5733 5733 5733 5734 5734 5734 5734 5734 5733 5732 5731 5730 5729 5727 5725 5723
5672 5676 5681 5684 5687 5690 5693 5696 5699 5702 5704 5707 5709 5711 5713 5715 5717 5718 5720 5721 5722 5723 5724 5724 5724 5725 5725 5725 5725 5724 5723 5722 5721 5719 5718 5716 5714 5711
5655 5660 5664 5668 5672 5676 5679 5683 5686 5689 5692 5695 5698 5700 5703 5705 5707 5709 5710 5712 5713 5714 5714 5715 5715 5715 5715 5715 5715 5714 5713 5712 5710 5709 5707 5705 5702 5700
5638 5642 5647 5651 5656 5660 5664 5669 5672 5676 5680 5683 5686 5689 5691 5694 5696 5698 5700 5701 5703 5704 5704 5705 5705 5705 5705 5705 5704 5703 5702 5700 5699 5697 5695 5693 5691 5688
5619 5624 5629 5634 5639 5644 5649 5653 5658 5662 5666 5670 5674 5677 5680 5682 5685 5687 5689 5691 5692 5693 5694 5695 5695 5695 5695 5694 5693 5692 5691 5689 5687 5685 5683 5680 5678 5675
5600 5605 5611 5617 5622 5627 5633 5638 5643 5648 5653 5657 5661 5664 5667 5671 5673 5676 5678 5680 5681 5682 5683 5684 5684 5684 5684 5683 5682 5681 5679 5677 5675 5674 5671 5668 5665 5662